| time (UTC) | temp C | wind direction | speed KPH | gust KPH | rain 1hr cm | rain 24hr cm | rain mn cm | humidity % | barometer mb |
| 20260504041540 | 11 | 219 | 8.0 | 19.3 | 0.00 | 0.10 | 0.00 | 70 | 1010.3 |
| 20260504040049 | 11 | 200 | 11.3 | 19.3 | 0.00 | 0.10 | 0.00 | 68 | 1010.6 |
| 20260504034551 | 11 | 217 | 8.0 | 17.7 | 0.00 | 0.10 | 0.10 | 70 | 1010.8 |
| 20260504033046 | 11 | 235 | 3.2 | 11.3 | 0.00 | 0.10 | 0.10 | 69 | 1010.9 |
| 20260504031602 | 12 | 180 | 1.6 | 12.9 | 0.00 | 0.10 | 0.10 | 68 | 1011.0 |
| 20260504030043 | 12 | 228 | 4.8 | 11.3 | 0.00 | 0.10 | 0.10 | 68 | 1011.1 |
| 20260504024546 | 12 | 206 | 3.2 | 8.0 | 0.00 | 0.10 | 0.10 | 68 | 1011.3 |
| 20260504023039 | 12 | 194 | 0.0 | 8.0 | 0.00 | 0.10 | 0.10 | 67 | 1011.2 |
| 20260504021545 | 12 | 193 | 0.0 | 8.0 | 0.00 | 0.10 | 0.10 | 67 | 1011.3 |
| 20260504020043 | 12 | 227 | 0.0 | 11.3 | 0.00 | 0.10 | 0.10 | 67 | 1011.4 |
| 20260504014544 | 12 | 191 | 1.6 | 12.9 | 0.00 | 0.10 | 0.10 | 66 | 1011.5 |
| 20260504013042 | 12 | 0 | 0.0 | 4.8 | 0.00 | 0.10 | 0.10 | 64 | 1011.5 |
| 20260504011553 | 13 | 217 | 1.6 | 12.9 | 0.00 | 0.10 | 0.10 | 64 | 1011.6 |
| 20260504010045 | 13 | 219 | 8.0 | 12.9 | 0.00 | 0.10 | 0.10 | 61 | 1011.6 |
| 20260504004546 | 13 | 219 | 4.8 | 12.9 | 0.00 | 0.10 | 0.10 | 60 | 1011.5 |
| 20260504003048 | 13 | 218 | 6.4 | 17.7 | 0.00 | 0.10 | 0.10 | 59 | 1011.6 |
| 20260504001601 | 13 | 236 | 11.3 | 24.1 | 0.00 | 0.10 | 0.10 | 58 | 1011.5 |
| 20260504000041 | 13 | 235 | 9.7 | 19.3 | 0.00 | 0.10 | 0.10 | 58 | 1011.6 |
| 20260503234540 | 14 | 217 | 9.7 | 17.7 | 0.00 | 0.10 | 0.10 | 56 | 1011.6 |
| 20260503233045 | 14 | 247 | 12.9 | 22.5 | 0.00 | 0.10 | 0.10 | 55 | 1011.6 |
| 20260503231550 | 14 | 235 | 11.3 | 22.5 | 0.00 | 0.10 | 0.10 | 55 | 1011.5 |
| 20260503230044 | 14 | 230 | 14.5 | 22.5 | 0.00 | 0.10 | 0.10 | 55 | 1011.3 |
| 20260503224548 | 12 | 200 | 4.8 | 14.5 | 0.00 | 0.10 | 0.10 | 68 | 1011.7 |
| 20260503223043 | 11 | 144 | 9.7 | 22.5 | 0.00 | 0.10 | 0.10 | 69 | 1011.8 |
| 20260503221545 | 11 | 143 | 9.7 | 20.9 | 0.00 | 0.10 | 0.10 | 70 | 1012.3 |
| 20260503220050 | 11 | 117 | 14.5 | 20.9 | 0.00 | 0.10 | 0.10 | 69 | 1012.1 |
| 20260503214552 | 11 | 139 | 12.9 | 19.3 | 0.00 | 0.10 | 0.10 | 73 | 1012.5 |
| 20260503213112 | 11 | 116 | 14.5 | 19.3 | 0.00 | 0.10 | 0.10 | 72 | 1012.8 |
| 20260503211613 | 11 | 130 | 11.3 | 20.9 | 0.00 | 0.10 | 0.10 | 76 | 1013.3 |
| 20260503210039 | 10 | 126 | 9.7 | 16.1 | 0.00 | 0.10 | 0.10 | 77 | 1013.5 |
| 20260503204601 | 9 | 121 | 9.7 | 14.5 | 0.03 | 0.10 | 0.10 | 77 | 1013.7 |
| 20260503203046 | 9 | 117 | 12.9 | 17.7 | 0.10 | 0.10 | 0.10 | 77 | 1014.2 |
| 20260503201549 | 9 | 121 | 11.3 | 14.5 | 0.10 | 0.10 | 0.10 | 75 | 1014.7 |
| 20260503200043 | 8 | 102 | 4.8 | 11.3 | 0.10 | 0.10 | 0.10 | 76 | 1015.3 |
| 20260503194548 | 8 | 255 | 11.3 | 27.4 | 0.08 | 0.08 | 0.08 | 73 | 1016.2 |
| 20260503193040 | 10 | 236 | 19.3 | 33.8 | 0.00 | 0.00 | 0.00 | 66 | 1016.6 |
| 20260503191601 | 12 | 296 | 20.9 | 32.2 | 0.00 | 0.00 | 0.00 | 53 | 1015.9 |
| 20260503190040 | 13 | 255 | 22.5 | 40.2 | 0.00 | 0.00 | 0.00 | 48 | 1015.4 |
| 20260503184603 | 13 | 255 | 19.3 | 41.8 | 0.00 | 0.00 | 0.00 | 45 | 1015.3 |
| 20260503183049 | 14 | 230 | 17.7 | 38.6 | 0.00 | 0.00 | 0.00 | 44 | 1015.6 |
| 20260503181551 | 14 | 232 | 22.5 | 41.8 | 0.00 | 0.00 | 0.00 | 43 | 1015.7 |
| 20260503180050 | 15 | 236 | 24.1 | 41.8 | 0.00 | 0.00 | 0.00 | 42 | 1016.0 |
| 20260503174603 | 15 | 261 | 22.5 | 35.4 | 0.00 | 0.00 | 0.00 | 42 | 1016.4 |
| 20260503173048 | 14 | 238 | 17.7 | 33.8 | 0.00 | 0.00 | 0.00 | 42 | 1016.6 |
| 20260503171544 | 15 | 227 | 19.3 | 38.6 | 0.00 | 0.00 | 0.00 | 44 | 1016.6 |
| 20260503081554 | 3 | 229 | 6.4 | 8.0 | 0.00 | 0.00 | 0.00 | 69 | 1017.2 |
| 20260503071603 | 3 | 177 | 3.2 | 8.0 | 0.00 | 0.00 | 0.00 | 69 | 1017.2 |
| 20260503054554 | 2 | 209 | 4.8 | 8.0 | 0.00 | 0.00 | 0.00 | 75 | 1017.8 |
| 20260503053048 | 1 | 193 | 1.6 | 4.8 | 0.00 | 0.00 | 0.00 | 82 | 1017.8 |
| 20260503051547 | 0 | 0 | 0.0 | 1.6 | 0.00 | 0.00 | 0.00 | 81 | 1017.9 |
| 20260503050046 | 0 | 0 | 0.0 | 0.0 | 0.00 | 0.00 | 0.00 | 79 | 1018.0 |
| 20260503044544 | 1 | 0 | 0.0 | 1.6 | 0.00 | 0.00 | 0.00 | 78 | 1017.9 |
| 20260503043045 | 2 | 0 | 0.0 | 1.6 | 0.00 | 0.00 | 0.00 | 76 | 1017.9 |